Regional Weather Roundup
Issued by NWS Newport/Morehead, NC

Current Version | Previous Version | Text Only | Print | Product List | Glossary On
Versions: 1 2 3 4 5 6 7 8 9 10 11 12 13 14 15 16 17 18 19 20 21 22 23 24 25 26 27 28 29 30 31 32 33 34 35 36 37 38 39 40 41 42 43 44 45 46 47 48 49 50
897
ASUS42 KMHX 121525
RWRMHX
WEATHER ROUNDUP FOR EASTERN NORTH CAROLINA
NATIONAL WEATHER SERVICE NEWPORT/MOREHEAD CITY NC
1000 AM EST FRI FEB 12 2016

NOTE: "FAIR" INDICATES FEW OR NO CLOUDS BELOW 12,000 FEET
WITH NO SIGNIFICANT WEATHER AND/OR OBSTRUCTIONS TO VISIBILITY

NCZ015>017-031-032-045>047-102-103-121600-
NORTH COAST

CITY           SKY/WX    TMP DP  RH WIND       PRES   REMARKS
EDENTON        CLOUDY    32  19  57 NE5       30.29S
ELIZABETH CITY CLOUDY    31  16  54 NE8       30.29F
KITTY HAWK     PTSUNNY   35  19  52 E6        30.26F
MANTEO         CLOUDY    34  20  55 E7        30.28F

$$

NCZ045>047-081-094-103-104-121600-
CENTRAL COAST

CITY           SKY/WX    TMP DP  RH WIND       PRES   REMARKS
FRISCO         CLOUDY    38  24  57 NE9       30.27F
SWANQUARTER      N/A     36 N/A N/A NE7G13    30.24F

$$

NCZ095-097-098-100-101-121600-
SOUTHERN COAST

CITY           SKY/WX    TMP DP  RH WIND       PRES   REMARKS
BEAUFORT       LGT RAIN  36  27  69 NE12      30.23F
CEDAR ISLAND     N/A     37 N/A N/A NE12G22   30.27F
JACKSONVILLE   FRZ RAIN  33  24  69 NE12      30.23F
PINEY ISLAND   CLOUDY   N/A N/A N/A E13       30.24F
WILMINGTON     LGT RAIN  34  26  72 NE12      30.20F


$$

NCZ011>013-027>030-043-044-078>080-089-090>093-098-121600-
COASTAL PLAIN

CITY           SKY/WX    TMP DP  RH WIND       PRES   REMARKS
AHOSKIE        CLOUDY    27  11  50 NE3       30.28F
CLINTON        PTSUNNY   33  15  48 E7        30.23S
ELIZABETHTOWN  CLOUDY    33  12  40 NE6       30.19F
GOLDSBORO      NOT AVBL
GREENVILLE     CLOUDY    32  19  59 E9        30.26F
HAVELOCK       CLOUDY    37  25  61 E13       30.25F
KENANSVILLE    CLOUDY    33  16  49 CALM      30.23F
KINSTON        CLOUDY    32  19  59 NE10      30.25F
NEW BERN       CLOUDY    35  22  58 E8        30.26F
RICHLANDS      CLOUDY    32  19  59 NE9       30.21F
ROCKY MOUNT    CLOUDY    28  11  48 NE5       30.26F
WASHINGTON     MOSUNNY   33  20  60 NE8       30.26F
WHITEVILLE     CLOUDY    35  15  45 NE7       30.18F

$$

AMZ130-135-150-152-154-156-158-170-250-252-270-ANZ085-086-088-633-658-670-121600-
MARINE OBSERVATIONS

STATION/POSITION TIME  TEMP    WIND        PRES    WAVE   SWELL
                       AIR SEA DIR/SP/G            HT/PER HT/PER
                 (UTC) (F)     (DEG/KT/KT) (MB)    (FT/S) (FT/S)
CHESAPEAKE LIGHT 1500   27      50/  1/  3 1026.8
64 E VA BEACH    1450   31 50  340/  4/  8 1026.0    4/ 6   3/ 6
DUCK             1500   31      30/ 12/ 13 1024.5
2 E DUCK         1411      43                N/A     3/ 5
OREGON INLET     1500   34 40   60/  8/  9 1025.2
13E OREGON INLT  1400      45                N/A     4/ 7
HATTERAS CG      1500   37 45   60/ 10/ 13 1024.2
DIAMOND BUOY     1450   44 70   30/ 14/ 17 1024.5    3/ 8   2/ 8
CAPE LOOKOUT     NOT AVBL
BEAUFORT LAB     1500   36 44   30/  7/ 11 1022.5
30 SE NEW RVR IN 1508   49 59              1020.9
30 SE NEW RVR IN 1425      59                N/A     4/ 5
27 SE WRIGHTSVLE 1508   42 62   60/ 19/ 27 1019.0
5 SE WRIGHTSVLE  1408   43 51   70/ 19/ 25 1022.3
225 S CAPE HAT   1450   61 68  220/ 17/ 23   N/A     4/ 6   3/ 8
41 SE CHARLESTON 1450   60 69  250/ 14/ 17 1019.7    4/ 6   2/ 7

$$




USA.gov is the U.S. government's official web portal to all federal, state and local government web resources and services.